GW1585 Weather Reports


Display with metric or nautical units.
time (UTC)temp
F
wind
direction
speed
MPH
gust
MPH
rain 1hr
in
rain 24hr
in
rain mn
in
humidity
%
barometer
mb
20260507210057 51 311 0.0 3.0 0.00 0.00 0.00 81 1017.8
20260507204559 51 356 0.0 2.0 0.00 0.00 0.00 81 1017.9
20260507203056 51 0 0.0 0.0 0.00 0.00 0.00 81 1017.9
20260507201555 51 0 0.0 1.0 0.00 0.00 0.00 81 1017.8
20260507200055 51 79 0.0 1.0 0.00 0.00 0.00 81 1017.5
20260507194556 50 0 0.0 1.0 0.00 0.00 0.00 81 1017.4
20260507193055 50 0 0.0 0.0 0.00 0.00 0.00 80 1017.3
20260507191603 50 0 0.0 1.0 0.00 0.00 0.00 79 1017.3
20260507190059 51 0 0.0 1.0 0.00 0.00 0.00 78 1017.3
20260507184556 51 65 0.0 3.0 0.00 0.00 0.00 77 1017.4
20260507183105 52 80 0.0 2.0 0.00 0.00 0.00 76 1017.3
20260507181555 53 0 0.0 5.0 0.00 0.00 0.00 75 1017.2
20260507180059 53 2 0.0 3.0 0.00 0.00 0.00 74 1017.2
20260507174556 54 44 0.0 3.0 0.00 0.00 0.00 73 1017.2
20260507173103 54 0 1.0 5.0 0.00 0.00 0.00 74 1017.2
20260507171557 54 39 0.0 3.0 0.00 0.00 0.00 74 1017.2
20260507170059 54 78 0.0 3.0 0.00 0.00 0.00 74 1017.3
20260507164557 54 0 0.0 3.0 0.00 0.00 0.00 73 1017.2
20260507163100 55 84 0.0 3.0 0.00 0.00 0.00 73 1017.2
20260507161559 55 203 0.0 3.0 0.00 0.00 0.00 73 1017.2
20260507160057 55 0 1.0 4.0 0.00 0.00 0.00 73 1017.2
20260507154559 55 89 1.0 3.0 0.00 0.00 0.00 73 1017.3
20260507153105 55 0 1.0 6.0 0.00 0.00 0.00 73 1017.3
20260507151558 55 142 1.0 4.0 0.00 0.00 0.00 72 1017.3
20260507150109 56 0 0.0 6.0 0.00 0.00 0.00 71 1017.3
20260507144556 56 117 1.0 4.0 0.00 0.00 0.00 71 1017.3
20260507143107 56 144 1.0 5.0 0.00 0.00 0.00 71 1017.3
20260507141559 56 180 1.0 5.0 0.00 0.00 0.00 71 1017.4
20260507134601 57 0 1.0 3.0 0.00 0.00 0.00 69 1017.5
20260507133100 57 159 1.0 4.0 0.00 0.00 0.00 68 1017.5
20260507131601 58 125 1.0 4.0 0.00 0.00 0.00 68 1017.7
20260507130107 58 176 1.0 3.0 0.00 0.00 0.00 67 1017.8
20260507124600 59 171 0.0 3.0 0.00 0.00 0.00 65 1017.8
20260507123058 60 0 0.0 3.0 0.00 0.00 0.00 65 1017.8
20260507121601 59 143 0.0 2.0 0.00 0.00 0.00 68 1017.7
20260507120058 59 149 0.0 2.0 0.00 0.00 0.00 66 1017.8
20260507114559 59 0 0.0 2.0 0.00 0.00 0.00 67 1017.8
20260507113055 59 0 0.0 2.0 0.00 0.00 0.00 66 1017.7
20260507111555 59 148 0.0 3.0 0.00 0.00 0.00 67 1017.9
20260507104602 57 0 0.0 3.0 0.00 0.00 0.00 70 1018.0
20260507103128 56 0 1.0 4.0 0.00 0.00 0.00 69 1017.9
20260507101556 57 247 1.0 5.0 0.00 0.00 0.00 69 1017.9
20260507100110 57 0 1.0 4.0 0.00 0.00 0.00 68 1017.8
20260507094601 57 290 1.0 4.0 0.00 0.00 0.00 68 1017.9
20260507093102 56 6 1.0 4.0 0.00 0.00 0.00 67 1017.8
20260507091600 56 326 1.0 5.0 0.00 0.00 0.00 68 1017.8
20260507084606 56 5 1.0 4.0 0.00 0.00 0.00 68 1017.5
20260507083100 56 274 0.0 3.0 0.00 0.00 0.00 69 1017.5
20260507081559 56 326 0.0 3.0 0.00 0.00 0.00 69 1017.5
20260507080104 55 359 0.0 3.0 0.00 0.00 0.00 69 1017.4
20260507074608 55 14 0.0 4.0 0.00 0.00 0.00 71 1017.2
20260507073102 54 0 0.0 2.0 0.00 0.00 0.00 70 1017.2
20260507071559 54 313 0.0 3.0 0.00 0.00 0.00 71 1016.9
20260507070107 54 266 0.0 3.0 0.00 0.00 0.00 71 1016.9
20260507064556 54 0 0.0 3.0 0.00 0.00 0.00 71 1016.8
20260507063057 53 341 0.0 3.0 0.00 0.00 0.00 74 1016.7
20260507061556 51 136 0.0 3.0 0.00 0.00 0.00 77 1016.5
20260507054612 49 0 0.0 2.0 0.00 0.00 0.00 79 1016.3
20260507053105 49 0 0.0 1.0 0.00 0.00 0.00 80 1016.3
20260507051558 49 0 0.0 1.0 0.00 0.00 0.00 80 1016.3
20260507050056 48 0 0.0 3.0 0.00 0.00 0.00 81 1016.1
20260507044557 48 0 0.0 3.0 0.00 0.00 0.00 82 1016.0
20260507043054 48 259 0.0 1.0 0.00 0.00 0.00 82 1015.8
20260507041603 48 0 0.0 2.0 0.00 0.00 0.00 82 1015.8
20260507040055 48 0 0.0 2.0 0.00 0.00 0.00 81 1015.7
20260507034600 48 0 0.0 1.0 0.00 0.00 0.00 81 1015.7
20260507033056 48 345 0.0 3.0 0.00 0.00 0.00 81 1015.7
20260507031555 48 0 0.0 0.0 0.00 0.00 0.00 81 1015.7
20260507030101 48 0 0.0 2.0 0.00 0.00 0.00 81 1015.6
20260507024556 48 0 0.0 1.0 0.00 0.00 0.00 81 1015.6
20260507023055 48 0 0.0 0.0 0.00 0.00 0.00 81 1015.5
20260507021627 48 0 0.0 2.0 0.00 0.00 0.00 80 1015.5
20260507020110 48 0 0.0 2.0 0.00 0.00 0.00 81 1015.4
20260507014621 48 158 0.0 1.0 0.00 0.00 0.00 81 1015.4
20260507013101 48 0 0.0 2.0 0.00 0.00 0.00 81 1015.5
20260507011600 48 0 0.0 2.0 0.00 0.00 0.00 80 1015.5
20260507010058 48 0 0.0 3.0 0.00 0.00 0.00 81 1015.5
20260507004552 48 286 0.0 2.0 0.00 0.00 0.00 80 1015.3
20260507003055 48 0 0.0 1.0 0.00 0.00 0.00 80 1015.4
20260507001606 48 191 0.0 1.0 0.00 0.00 0.00 79 1015.3
20260507000127 49 0 0.0 2.0 0.00 0.00 0.00 79 1015.5
20260506234625 49 0 0.0 2.0 0.00 0.00 0.00 79 1015.5
20260506233059 49 257 0.0 2.0 0.00 0.00 0.00 79 1015.5
20260506231556 49 0 0.0 2.0 0.00 0.00 0.00 78 1015.6
20260506230103 49 39 0.0 3.0 0.00 0.00 0.00 78 1015.6
20260506224556 49 0 0.0 2.0 0.00 0.00 0.00 79 1015.4
20260506223100 49 0 0.0 3.0 0.00 0.00 0.00 78 1015.2
20260506221603 49 0 0.0 2.0 0.00 0.00 0.00 78 1015.2
20260506220056 49 204 0.0 2.0 0.00 0.00 0.00 78 1015.1
20260506214600 49 232 0.0 4.0 0.00 0.00 0.00 77 1015.0
20260506213059 49 301 0.0 3.0 0.00 0.00 0.00 78 1014.9
20260506211556 50 0 1.0 4.0 0.00 0.00 0.00 78 1014.9